GFSNGP_con_3kmhel_234.txt.gz
Helicity
137 115 114 117 166 179 223 163 147 197 203 170 133 129 113 109 109 113 125 108 169 289 236 255 264 283 276 258 255 307 337 363 435 498 440 396 365 488 546 404 352 358 269 130
138 129 125 88 157 230 204 159 159 229 39 164 121 118 114 97 86 80 82 129 118 103 128 133 188 269 288 284 258 296 358 370 456 487 399 361 517 546 424 412 419 422 266 208
142 242 203 103 219 220 205 192 212 201 200 141 108 78 55 26 60 56 58 97 128 120 145 158 225 312 350 258 213 255 353 465 491 457 401 586 564 428 395 423 438 262 203 174
279 318 251 362 189 152 144 183 188 116 104 107 94 84 50 50 50 76 95 101 112 130 231 355 389 344 304 284 239 361 413 431 399 519 597 572 424 385 391 431 274 210 231 226
541 399 289 75 338 206 188 144 94 112 142 143 95 56 69 74 77 68 98 114 220 280 347 416 341 255 219 186 206 341 371 382 431 540 478 370 373 376 383 317 288 226 187 165
610 551 300 196 62 32 108 -15 46 64 99 83 46 93 104 84 82 154 140 220 360 339 269 231 207 187 217 210 213 281 290 320 456 397 322 338 323 324 298 251 209 188 176 184
433 370 202 244 286 174 198 286 121 127 142 189 205 143 133 99 127 210 304 343 422 349 245 178 183 201 191 190 218 323 329 409 429 395 357 332 319 278 241 214 180 139 146 195
292 296 189 130 109 102 183 83 53 75 112 103 87 102 145 171 221 232 292 369 359 245 238 243 242 200 230 302 311 351 403 506 553 492 335 336 284 244 202 187 143 129 148 145
346 390 293 301 226 146 169 233 99 184 239 231 193 226 189 302 147 371 312 310 247 216 321 317 267 223 409 447 553 604 621 564 524 439 350 294 271 256 221 185 170 165 181 171
214 184 131 143 197 266 304 340 299 289 431 418 489 502 490 335 455 384 299 357 245 226 312 243 208 235 448 435 442 520 487 430 339 270 238 222 219 213 208 196 186 188 182 164
309 323 308 204 338 245 222 220 211 237 239 360 399 370 553 359 332 596 540 285 234 171 248 241 361 484 467 405 325 384 400 336 271 224 210 233 176 144 152 127 149 159 151 135
161 215 207 231 289 184 133 59 -63 -154 9 -30 -7 -1 113 189 184 171 247 184 119 167 219 315 485 524 530 453 450 510 458 395 381 391 340 224 196 195 150 124 112 109 136 133
116 36 -146 -187 -48 -24 -1 21 120 135 76 93 134 59 28 30 83 87 72 149 235 305 427 526 539 486 468 417 368 406 418 423 357 271 167 160 174 189 158 124 83 75 88 80
135 167 164 183 108 90 128 203 136 35 42 146 181 214 189 153 92 80 187 283 433 537 630 720 716 565 409 438 452 435 423 335 267 164 172 190 180 139 117 106 97 95 69 64
86 72 100 152 135 163 146 126 169 218 209 255 287 240 153 139 219 365 426 467 442 400 424 430 487 525 530 505 419 302 219 168 139 165 184 194 148 88 89 91 84 87 108 91
93 96 97 95 133 150 113 112 113 95 122 175 201 163 150 231 282 377 447 460 408 446 501 440 384 342 277 249 235 209 162 188 187 190 140 91 75 79 78 83 84 86 88 82
64 69 66 40 43 78 115 112 152 217 218 192 146 164 210 278 313 283 261 258 250 228 206 203 219 235 243 213 190 199 206 193 86 60 61 79 77 76 71 76 78 73 65 65
84 67 108 131 136 161 205 205 197 206 201 210 205 220 244 244 213 177 153 151 158 165 164 151 125 130 134 127 125 113 70 58 57 65 75 73 64 65 72 68 58 53 54 69
152 173 173 181 174 146 134 146 165 180 212 222 230 228 218 209 188 174 168 151 126 110 116 83 56 32 26 30 35 49 59 63 70 68 69 63 57 58 61 60 61 58 59 72
135 144 141 149 162 153 170 175 183 190 198 192 145 119 117 113 109 104 86 71 81 63 31 53 41 43 43 60 48 38 53 54 65 67 66 63 64 65 64 61 65 71 71 74
124 120 110 125 129 141 144 134 133 143 109 90 86 85 83 64 57 56 66 88 86 98 85 63 82 111 123 121 51 54 82 55 63 59 60 67 69 73 81 84 88 88 97 98
98 104 85 80 102 113 102 97 98 89 90 85 84 85 72 71 73 85 94 146 137 152 123 137 139 159 149 156 148 127 113 100 72 71 77 86 93 102 110 114 125 141 126 129
65 80 75 61 72 79 79 83 88 96 102 106 115 126 128 120 137 127 145 186 185 154 116 131 146 130 133 123 129 127 124 123 120 107 105 101 101 102 103 112 155 153 148 147
72 69 69 56 34 63 93 87 91 86 62 43 61 76 124 128 128 193 199 187 183 129 136 148 125 132 139 130 130 140 135 135 146 132 137 129 119 130 151 193 244 206 200 194
98 80 85 82 101 100 98 82 58 88 76 113 144 121 103 113 115 115 128 137 151 139 132 143 136 142 144 132 146 164 201 177 169 155 156 169 187 212 228 239 228 217 220 204
82 123 139 150 139 120 102 95 104 113 104 131 111 106 84 91 101 114 119 130 125 127 125 116 114 150 126 144 172 198 180 145 142 158 145 145 160 175 193 205 211 200 190 180
137 104 91 108 112 115 119 118 141 167 152 129 145 127 129 119 120 123 126 120 112 106 97 93 117 137 137 124 111 95 89 102 120 106 118 126 132 142 149 155 164 173 183 189

GFSNGP_con_3kmhel_237.txt.gz
Helicity
149 172 178 136 132 125 124 115 211 222 42 230 253 246 197 191 175 176 153 133 163 222 268 270 314 374 403 378 371 397 373 409 413 427 448 498 506 493 486 478 457 410 411 425
113 164 140 96 83 101 153 189 159 69 -30 264 129 154 169 157 164 170 137 87 113 166 212 285 259 301 319 312 285 347 350 364 425 504 534 542 562 542 542 520 470 468 490 450
182 210 159 0 197 200 166 175 230 195 42 61 65 83 69 54 62 65 89 127 79 71 109 135 170 235 294 310 310 312 254 297 416 510 543 564 579 587 590 568 555 518 441 366
238 279 272 383 264 224 263 257 187 138 139 89 60 60 72 68 124 95 82 69 100 130 178 218 300 339 334 319 320 252 202 317 440 514 598 618 613 601 577 555 532 466 401 251
317 355 274 -27 317 267 138 -1 152 125 26 -13 14 13 3 33 35 37 79 93 132 212 250 267 286 286 282 285 284 247 267 331 471 554 592 591 590 577 548 527 528 474 278 162
431 430 310 72 216 137 208 58 35 50 153 126 99 116 45 74 92 130 119 148 228 260 290 327 278 300 327 309 256 205 232 379 447 499 531 542 509 493 521 509 416 282 197 186
367 456 403 439 394 357 227 320 243 196 167 106 55 119 125 31 8 78 120 188 198 218 206 221 261 309 321 275 217 212 295 377 402 445 474 440 466 515 499 423 331 205 197 187
445 416 262 350 290 200 270 211 152 103 50 69 83 165 318 365 157 161 122 145 320 222 260 257 235 293 305 237 193 270 351 424 466 522 538 514 506 440 372 299 263 263 230 173
618 591 507 342 278 205 267 114 116 67 -13 -1 62 117 121 289 305 389 578 548 430 205 365 198 123 209 283 335 330 387 488 587 708 746 687 574 489 427 329 281 291 234 185 184
628 379 377 358 259 225 158 182 165 123 103 76 95 138 194 111 338 271 230 322 455 481 371 230 359 313 273 262 341 457 516 595 597 605 576 495 416 366 325 271 200 187 218 234
557 294 271 201 187 115 74 92 123 -24 -46 79 44 43 58 86 58 56 161 117 183 292 297 271 225 231 240 269 283 313 379 452 488 481 449 394 384 339 307 153 157 172 174 182
254 159 105 76 95 44 -25 -43 1 -20 33 51 72 75 75 86 161 162 132 121 164 38 53 163 209 290 380 360 330 307 356 433 471 455 377 386 336 235 135 112 137 143 128 157
126 119 98 67 58 47 20 -22 -32 27 70 64 141 169 157 175 133 80 31 92 125 243 205 285 443 509 527 570 548 462 401 406 413 388 381 288 180 140 111 155 143 129 86 91
58 36 45 79 70 111 134 128 130 159 149 115 167 178 141 151 167 161 179 162 193 259 341 436 477 559 616 642 627 554 478 498 382 297 227 171 124 115 143 147 145 135 57 85
122 116 119 93 115 139 128 145 169 177 122 161 172 156 139 155 216 248 254 241 374 445 455 498 548 540 474 413 357 282 229 210 217 200 172 138 151 147 126 117 100 77 78 94
148 137 136 126 110 100 83 111 118 120 179 183 169 157 180 191 202 241 274 264 204 213 232 239 230 205 178 170 176 183 185 188 192 182 164 170 159 132 92 59 56 67 74 83
83 78 79 97 118 162 165 175 203 224 234 238 213 166 131 143 173 195 200 184 185 177 149 131 115 108 111 127 148 154 131 123 131 158 146 102 85 63 56 60 60 69 74 84
113 122 127 120 112 126 173 190 185 169 148 123 119 127 128 148 147 134 124 102 108 116 112 92 89 99 99 86 82 87 75 66 58 43 38 36 50 59 64 67 64 52 55 60
124 128 124 129 130 137 131 130 113 114 114 102 121 125 103 90 84 90 98 109 109 104 95 72 52 50 43 24 20 26 22 32 35 37 44 51 51 46 49 56 54 48 45 51
87 95 103 115 144 158 153 149 117 121 99 89 75 82 92 102 100 109 91 82 78 63 61 63 80 88 88 60 44 54 60 48 50 54 62 63 56 55 55 59 57 55 58 58
113 113 121 149 140 121 104 84 88 98 98 99 99 97 94 67 79 95 132 121 135 150 147 120 123 119 109 128 132 106 100 87 71 58 47 51 57 58 64 71 81 80 82 86
94 76 72 75 84 85 73 71 68 72 80 89 114 136 120 154 159 133 183 175 161 178 153 113 109 112 101 112 119 135 132 119 105 87 77 70 79 78 92 102 110 111 127 140
61 57 68 66 67 73 73 76 79 82 93 107 132 149 149 139 156 175 171 156 133 131 103 105 107 113 113 113 130 143 144 143 150 135 119 90 84 94 101 103 100 120 170 179
49 54 73 52 39 58 78 71 79 63 54 64 101 97 99 116 143 148 140 133 133 141 154 146 137 140 150 158 160 152 147 141 141 152 148 144 159 176 183 183 253 305 263 227
69 60 57 76 98 84 73 68 110 101 116 141 127 114 107 91 88 91 121 137 152 151 147 145 159 215 162 170 225 234 188 192 199 177 169 171 173 186 206 217 219 211 197 177
77 123 146 172 159 159 145 156 180 180 148 140 169 120 89 81 97 120 131 145 146 145 126 118 154 170 142 130 135 144 154 146 145 144 130 120 119 127 137 146 158 164 169 174
138 142 139 155 138 136 140 168 162 142 155 181 165 115 107 127 138 144 142 139 125 111 109 101 98 114 112 118 119 105 89 76 76 66 68 74 88 95 105 117 130 141 151 152

GFSNGP_con_3kmhel_240.txt.gz
Helicity
180 175 153 101 89 131 170 201 194 183 141 165 140 128 192 152 73 16 22 100 94 99 121 172 213 288 374 399 468 449 418 390 338 310 319 340 355 399 396 422 420 436 489 516
193 195 170 117 97 99 83 97 120 84 14 124 127 148 121 77 67 119 123 110 103 110 132 87 79 186 299 430 470 452 415 387 326 356 379 367 396 475 533 537 511 535 550 575
220 220 212 103 142 143 162 184 166 145 86 84 90 72 56 23 27 44 58 79 108 102 106 72 109 173 195 242 328 371 359 330 361 365 359 373 454 535 553 566 615 606 606 600
264 317 219 272 150 181 207 174 182 152 125 101 131 143 63 172 104 27 2 18 56 57 67 69 109 123 141 179 210 262 285 296 320 348 389 453 488 524 619 637 643 657 634 599
312 310 233 141 275 260 180 117 155 127 113 120 198 189 205 351 233 142 116 95 50 54 82 152 196 212 241 265 273 276 248 277 324 372 421 442 485 621 668 708 723 678 648 618
329 297 252 177 173 166 209 198 333 304 251 222 232 226 76 226 170 141 142 156 232 195 141 163 168 172 230 205 169 148 130 173 290 368 383 440 550 614 640 689 757 689 589 480
383 396 313 370 337 324 264 320 433 354 269 235 207 104 14 -24 18 80 76 190 218 249 184 162 141 170 255 357 260 278 303 313 248 269 327 405 489 594 692 721 660 576 558 537
380 430 259 401 372 326 338 432 360 292 221 157 123 103 129 96 59 54 91 115 81 120 191 212 195 183 185 337 291 235 222 278 291 333 363 405 502 605 619 616 570 553 465 402
394 368 378 358 338 436 428 339 437 343 234 128 5 74 -5 -26 -43 72 142 127 132 90 100 180 130 118 195 249 236 293 148 283 318 350 404 465 521 549 565 499 422 372 307 283
342 297 358 372 451 565 494 484 464 473 222 85 19 60 139 104 84 69 133 164 181 250 228 174 206 154 83 62 124 159 278 345 373 467 527 562 569 500 471 466 386 336 364 158
260 357 438 426 502 447 469 409 116 -41 -46 -24 49 93 72 71 102 98 100 103 114 151 167 153 161 185 195 159 207 257 285 293 347 437 525 592 617 595 546 452 362 222 123 132
394 537 619 555 439 425 210 103 -6 -28 9 28 -0 19 64 94 120 135 159 154 165 133 122 129 210 279 316 293 228 229 285 314 367 442 524 520 512 469 347 199 72 99 78 117
241 127 21 -19 -32 -75 -41 -60 -16 40 41 57 76 63 66 95 161 189 166 186 214 193 201 256 311 349 327 351 364 377 404 386 419 428 351 306 248 226 160 119 129 90 91 113
-56 2 47 69 83 132 145 121 142 169 176 140 128 164 171 190 210 225 202 169 207 242 271 274 289 321 294 322 394 515 551 517 375 247 187 141 120 100 93 95 99 114 125 113
200 194 129 140 174 157 142 143 180 200 198 243 242 232 210 184 167 141 122 129 160 185 208 212 205 189 163 162 155 168 124 118 131 119 108 100 114 128 124 113 110 124 144 104
159 172 175 184 193 210 184 193 171 177 191 173 172 170 134 117 133 155 168 159 129 138 141 131 122 104 104 103 95 81 83 90 97 95 100 95 111 136 143 151 134 110 83 50
155 179 166 163 155 157 157 135 123 127 150 178 180 145 134 127 137 151 147 132 115 99 80 78 71 62 61 63 77 79 83 92 97 91 91 91 92 93 80 72 60 43 31 45
141 117 127 113 105 108 133 159 173 174 164 157 143 138 154 154 129 118 102 80 78 88 102 114 104 97 97 92 80 74 70 59 60 58 49 45 37 36 29 31 36 40 47 56
103 108 113 120 120 132 146 159 174 178 159 133 132 127 107 103 75 62 73 102 119 116 108 72 70 79 90 87 58 64 63 54 50 52 52 51 50 39 35 30 36 42 43 38
123 151 171 195 200 186 184 160 148 132 100 88 84 96 96 82 75 66 79 119 128 112 107 124 117 112 109 119 132 111 107 92 82 79 86 73 63 60 61 45 40 51 47 44
125 156 173 176 157 124 105 86 89 88 65 65 90 112 104 93 129 131 112 123 132 125 119 117 97 84 82 93 102 109 117 121 119 126 106 79 75 71 65 62 66 74 72 89
114 112 114 92 84 69 41 37 42 51 72 104 112 117 124 119 97 123 145 146 121 123 92 76 70 76 71 80 90 108 122 130 135 134 114 95 81 59 57 80 97 107 109 113
98 87 64 53 57 56 66 63 58 75 100 99 99 94 91 96 113 114 113 117 100 97 92 99 108 108 110 114 120 130 138 130 134 137 133 124 87 61 70 85 97 100 126 153
113 79 56 64 69 76 87 62 83 96 93 101 107 96 93 90 105 110 106 107 115 116 110 120 136 168 162 165 188 198 189 177 176 180 186 166 135 138 156 150 166 202 252 269
65 79 65 46 56 70 80 85 96 101 128 114 99 92 93 84 82 91 116 130 143 136 142 155 171 161 146 151 146 145 151 153 151 133 130 135 133 134 141 148 162 169 173 167
96 93 81 81 105 100 125 140 147 145 148 135 124 111 112 106 114 127 131 140 139 128 117 113 111 104 110 117 111 113 113 108 97 91 88 87 87 92 100 107 118 124 124 124
137 161 151 152 124 120 137 148 154 146 143 143 140 106 103 124 142 140 133 123 109 99 94 86 86 84 82 84 76 63 49 41 48 45 50 55 73 82 91 97 104 110 116 115

GFSNGP_con_3kmhel_243.txt.gz
Helicity
211 195 220 188 149 200 279 255 215 165 196 169 127 120 92 85 108 75 74 78 134 128 130 129 129 155 166 154 159 231 320 375 364 358 326 274 267 274 315 350 346 353 368 387
238 220 230 222 135 155 202 158 160 171 140 137 93 115 126 82 113 81 80 189 194 131 71 93 110 171 150 150 184 260 312 348 316 329 312 291 302 350 361 376 421 434 451 470
228 239 277 232 162 208 212 248 191 159 153 146 126 88 78 132 115 148 200 179 145 84 64 60 61 28 29 72 140 209 214 233 296 299 298 310 353 402 410 442 497 476 486 535
247 326 263 249 235 246 204 103 115 143 107 83 46 25 181 176 156 231 248 201 145 84 39 47 74 95 47 26 41 73 105 132 155 144 163 222 266 309 378 448 493 558 583 639
368 367 331 294 289 235 184 89 132 119 116 130 103 101 213 299 260 178 154 122 77 33 13 31 53 22 34 109 119 122 140 132 150 213 252 222 225 293 364 441 510 576 639 772
357 360 296 272 166 110 132 48 188 222 222 189 179 137 139 203 188 136 73 43 44 40 4 33 62 52 59 74 69 71 111 116 143 206 268 285 313 354 379 430 537 675 753 857
374 327 336 162 204 212 152 119 300 309 323 312 248 224 224 271 202 114 21 50 83 56 22 30 71 91 58 60 60 77 158 177 212 243 285 306 303 381 474 409 568 699 906 1014
384 354 160 191 261 247 260 332 308 347 356 319 295 303 307 313 268 186 141 82 52 22 7 60 90 99 108 85 83 123 164 176 195 187 155 179 277 347 502 634 707 634 758 808
240 282 235 247 295 375 310 392 396 370 405 367 319 311 250 204 231 99 52 12 -15 32 87 106 104 124 149 148 133 110 143 218 235 243 204 212 264 358 440 527 631 757 831 878
381 362 350 379 435 429 446 426 468 470 481 458 372 324 230 190 137 72 34 53 83 115 181 215 216 193 185 180 178 166 176 153 123 135 169 230 289 319 388 467 602 650 528 380
420 440 394 334 283 337 428 419 351 392 386 281 287 236 171 20 35 89 126 132 144 151 141 175 173 182 199 202 179 187 191 162 178 179 204 282 360 412 480 527 454 438 335 250
440 547 345 338 373 376 351 256 302 264 218 66 51 106 73 29 133 168 178 165 145 143 154 173 168 187 184 185 184 193 222 204 188 229 289 347 490 511 592 478 298 188 22 26
344 286 296 258 225 151 156 63 -26 -48 -47 -5 61 29 133 184 213 182 170 166 173 151 128 128 125 138 132 112 134 164 244 333 366 386 323 267 230 161 108 32 40 44 52 53
401 383 342 261 202 61 10 -24 26 149 219 221 216 239 224 215 206 197 172 136 116 113 115 111 114 130 129 125 104 104 100 104 89 84 82 83 83 75 61 66 70 56 71 56
189 169 148 128 109 129 152 187 265 261 234 271 268 245 223 203 188 163 140 137 124 107 126 132 131 132 104 90 85 88 83 96 88 82 77 72 72 76 77 77 79 83 108 122
238 239 256 255 255 266 238 242 231 209 210 196 196 191 170 154 141 139 138 144 128 124 112 106 102 88 84 85 91 88 83 86 84 83 89 94 101 101 93 95 108 111 102 91
212 210 205 208 200 206 206 186 179 183 176 162 146 132 117 123 129 138 148 131 119 113 98 90 83 81 81 78 72 73 72 63 59 60 58 57 61 77 73 56 48 51 58 45
241 211 182 142 134 141 156 160 156 158 148 145 142 143 152 134 126 122 117 101 97 103 114 98 85 81 81 99 79 67 64 60 63 66 67 70 69 64 58 46 39 34 34 29
161 145 136 139 125 125 130 149 158 162 168 151 144 134 114 105 91 96 93 122 130 123 124 123 117 112 105 116 111 95 90 87 82 83 87 89 92 83 74 64 52 34 37 35
130 117 112 116 117 122 147 155 157 154 125 100 89 104 107 94 67 85 113 134 120 82 85 97 93 81 75 81 93 80 77 80 87 91 96 102 100 84 74 68 64 59 55 54
85 85 99 129 156 161 136 104 98 89 79 88 100 93 106 123 126 101 95 96 98 104 94 80 64 47 43 47 58 70 84 90 96 103 109 107 102 85 67 61 64 72 75 76
101 119 134 142 132 112 82 69 70 72 76 101 106 94 95 97 89 84 85 91 76 86 63 57 60 71 61 66 73 92 104 114 123 128 136 144 123 102 79 65 73 93 104 108
129 128 137 122 91 81 86 92 91 93 101 94 95 92 85 68 69 71 81 97 85 91 84 88 98 120 127 114 124 133 140 145 145 137 132 134 143 130 107 98 94 108 137 150
136 121 111 92 95 105 112 89 105 102 94 92 82 53 56 58 75 80 70 87 110 118 110 113 117 130 117 107 110 117 133 151 161 164 159 163 128 112 131 141 137 152 186 234
112 105 92 90 86 82 99 100 100 94 108 112 105 85 73 67 67 77 106 113 126 121 116 119 116 108 90 88 89 96 97 100 98 88 90 96 101 103 101 101 108 123 140 153
89 84 67 57 65 97 110 107 101 108 123 108 81 74 86 88 92 102 109 114 112 103 95 87 86 80 74 66 57 56 50 46 42 41 44 49 50 54 63 72 86 94 97 99
128 145 134 132 119 115 109 115 127 115 113 103 103 81 95 113 125 124 117 103 90 82 81 80 74 62 48 40 30 17 12 16 32 29 34 42 56 63 65 69 74 76 89 100

GFSNGP_con_3kmhel_246.txt.gz
Helicity
228 196 164 153 207 293 277 211 307 190 146 113 61 88 88 59 69 82 61 27 53 58 51 54 73 69 64 63 91 116 165 168 163 172 194 246 250 259 281 314 284 270 266 278
236 192 185 192 122 129 291 266 239 225 231 112 112 46 71 89 105 69 73 106 130 106 121 110 101 84 64 66 79 59 61 87 84 94 135 192 214 206 214 231 249 254 273 284
215 131 174 186 103 186 195 256 241 207 126 57 58 102 113 116 102 103 128 132 170 181 126 94 104 99 70 14 -22 8 63 77 94 104 115 156 199 205 198 206 263 266 286 320
229 146 180 109 235 193 180 163 181 204 179 131 98 142 159 135 111 102 138 158 194 171 134 103 58 17 -20 -12 2 3 33 41 26 28 33 40 58 96 150 229 272 312 318 344
257 272 289 227 296 252 261 165 139 146 121 138 109 138 127 110 145 179 227 218 200 165 104 41 18 8 -43 -18 -24 -12 27 49 84 107 135 118 114 133 150 186 243 308 364 436
284 253 211 268 116 167 212 163 177 130 139 78 68 41 36 162 225 238 222 153 156 148 113 115 60 56 39 47 32 38 37 60 64 85 139 206 226 270 272 252 224 243 340 379
353 295 318 222 161 248 310 215 203 114 77 82 95 138 212 237 243 227 223 212 208 169 118 115 124 88 57 19 62 81 101 125 117 123 113 123 119 129 169 199 230 290 348 381
293 265 210 186 314 324 243 201 125 163 154 235 277 265 255 252 252 230 234 186 150 109 135 72 37 4 -9 17 45 55 80 106 132 162 184 180 178 182 169 160 195 228 295 451
276 292 254 325 294 315 249 237 228 289 301 302 295 298 291 264 306 247 182 161 203 139 111 72 39 13 11 48 57 65 83 129 164 172 177 191 208 238 230 226 285 406 552 688
307 342 340 322 386 350 289 242 270 250 257 232 224 238 229 241 192 169 132 208 245 135 65 91 86 76 81 123 113 88 101 79 68 96 127 179 137 134 174 198 317 438 542 588
330 392 481 330 198 187 219 264 265 222 172 208 181 200 220 241 178 156 165 199 157 133 100 83 94 126 145 163 119 113 121 105 91 97 121 112 119 179 218 276 293 278 234 160
318 304 352 311 281 255 193 179 160 153 209 168 158 168 134 156 156 167 170 171 134 125 105 85 75 78 83 80 71 86 81 67 86 109 122 131 118 99 128 57 43 7 23 15
261 322 339 288 315 314 246 179 188 217 174 140 215 143 177 201 212 218 199 171 146 116 98 93 109 125 124 129 112 108 71 66 60 72 72 65 47 38 41 51 47 49 75 74
324 438 418 302 189 148 167 233 215 205 262 208 227 254 249 231 216 202 187 166 155 153 154 153 150 148 126 105 88 79 75 84 75 80 84 85 85 87 83 76 73 77 78 51
274 365 304 248 304 303 248 280 320 319 267 266 220 208 197 213 205 186 162 148 167 173 152 130 119 108 88 82 88 99 95 98 101 92 87 85 88 97 95 83 85 86 92 88
319 381 362 375 329 299 273 271 237 196 194 199 208 204 189 173 172 187 191 174 152 137 117 109 112 105 103 108 103 88 79 78 70 67 69 70 69 68 69 61 60 59 56 51
339 359 341 317 279 246 217 204 190 190 191 190 178 151 162 175 179 179 163 134 122 127 125 126 124 108 88 96 88 76 75 69 52 60 62 64 56 64 63 58 56 54 46 40
316 259 202 170 167 184 198 192 182 179 168 159 167 179 185 168 151 143 141 113 94 128 126 114 107 91 76 78 67 61 65 69 70 71 72 82 90 82 76 79 79 70 61 46
239 223 198 182 154 154 156 169 167 167 172 170 175 168 141 127 116 119 115 136 141 117 111 90 83 71 69 71 68 63 68 71 77 81 86 88 94 103 99 86 74 64 66 59
222 201 180 168 146 141 150 153 166 175 150 134 128 134 131 101 68 78 89 91 75 57 61 64 56 55 68 77 88 74 83 90 91 101 112 120 121 114 110 102 83 52 49 63
149 133 131 135 147 153 153 141 143 158 122 101 116 107 99 100 105 85 93 84 80 76 73 79 75 74 71 79 72 82 88 97 111 121 133 148 159 158 126 107 88 64 74 86
92 99 111 125 135 145 143 130 113 99 105 97 75 61 68 76 66 62 60 65 59 83 66 73 82 100 87 87 89 96 107 112 122 135 145 146 151 151 145 131 107 102 101 115
75 76 95 115 132 152 147 128 107 88 82 67 64 65 58 44 50 60 69 93 87 97 88 93 99 109 94 81 79 83 96 116 124 130 135 139 153 136 109 113 115 104 120 147
93 117 148 153 143 120 127 97 110 108 87 76 68 44 38 35 63 73 65 75 100 111 98 92 83 88 71 61 64 64 64 68 70 71 75 82 83 84 88 96 99 100 111 153
144 147 127 110 106 102 109 105 109 85 88 88 72 62 71 66 52 52 80 86 104 92 81 78 82 73 54 44 39 36 27 19 16 13 19 24 31 35 36 44 56 64 69 80
141 120 97 96 91 92 92 82 76 78 87 75 72 58 61 68 82 92 95 91 82 68 60 54 52 44 32 20 8 1 -5 3 7 7 7 13 25 39 50 57 62 65 66 67
149 149 140 136 116 110 92 90 90 75 73 75 77 59 77 89 99 96 92 80 65 59 51 43 33 21 6 -1 5 13 20 22 26 21 22 23 23 25 32 37 47 49 64 85